<?xml version="1.0" encoding="UTF-8" standalone="no" ?>
<gpx xmlns="http://www.topografix.com/GPX/1/1" xmlns:xsi="http://www.w3.org/2001/XMLSchema-instance" xsi:schemaLocation="http://www.topografix.com/GPX/1/1 http://www.topografix.com/GPX/1/1/gpx.xsd" version="1.1" creator="VisuGPX - https://www.visugpx.com">
  <metadata>
    <name>RANDO VALSONNE_15 km</name>
    <desc><![CDATA[Randonnée pedestre du sous des écoles de Valsonne le 16 Janvier 2022]]></desc>
  </metadata>
  <wpt lat="45.9577" lon="4.38792">
    <ele>765.9</ele>
    <name><![CDATA[Relai 1]]></name>
    <type><![CDATA[restaurant]]></type>
  </wpt>
  <wpt lat="45.96301" lon="4.40956">
    <ele>536.7</ele>
    <name><![CDATA[Relai 2]]></name>
    <type><![CDATA[restaurant]]></type>
  </wpt>
  <trk>
    <name><![CDATA[rando 14.8 KM 537D  on edp-parcours.com]]></name>
    <extensions>
      <line xmlns="http://www.topografix.com/GPX/gpx_style/0/2">
        <color>0000ff</color>
        <opacity>1</opacity>
        <width>6</width>
      </line>
    </extensions>
    <trkseg>
      <trkpt lat="45.94648" lon="4.43083">
        <ele>478.6</ele>
        <time>2021-12-16T22:10:02Z</time>
      </trkpt>
      <trkpt lat="45.94604" lon="4.43257">
        <ele>488.2</ele>
        <time>2021-12-16T22:10:18Z</time>
      </trkpt>
      <trkpt lat="45.94603" lon="4.43261">
        <ele>488.4</ele>
        <time>2021-12-16T22:10:38Z</time>
      </trkpt>
      <trkpt lat="45.94597" lon="4.43266">
        <ele>487.8</ele>
        <time>2021-12-16T22:10:57Z</time>
      </trkpt>
      <trkpt lat="45.94581" lon="4.43306">
        <ele>487.5</ele>
        <time>2021-12-16T22:11:10Z</time>
      </trkpt>
      <trkpt lat="45.94579" lon="4.43308">
        <ele>487.1</ele>
        <time>2021-12-16T22:11:17Z</time>
      </trkpt>
      <trkpt lat="45.94577" lon="4.43302">
        <ele>486.1</ele>
        <time>2021-12-16T22:11:20Z</time>
      </trkpt>
      <trkpt lat="45.9458" lon="4.43286">
        <ele>485.6</ele>
        <time>2021-12-16T22:11:23Z</time>
      </trkpt>
      <trkpt lat="45.9458" lon="4.43279">
        <ele>485</ele>
        <time>2021-12-16T22:11:31Z</time>
      </trkpt>
      <trkpt lat="45.94572" lon="4.43258">
        <ele>480.9</ele>
        <time>2021-12-16T22:11:51Z</time>
      </trkpt>
      <trkpt lat="45.94541" lon="4.43333">
        <ele>477.8</ele>
        <time>2021-12-16T22:11:56Z</time>
      </trkpt>
      <trkpt lat="45.94531" lon="4.43372">
        <ele>475</ele>
        <time>2021-12-16T22:12:11Z</time>
      </trkpt>
      <trkpt lat="45.94527" lon="4.43386">
        <ele>473</ele>
        <time>2021-12-16T22:12:17Z</time>
      </trkpt>
      <trkpt lat="45.94529" lon="4.43398">
        <ele>471.5</ele>
        <time>2021-12-16T22:12:25Z</time>
      </trkpt>
      <trkpt lat="45.94555" lon="4.43462">
        <ele>467.9</ele>
        <time>2021-12-16T22:12:42Z</time>
      </trkpt>
      <trkpt lat="45.94563" lon="4.43503">
        <ele>463</ele>
        <time>2021-12-16T22:12:48Z</time>
      </trkpt>
      <trkpt lat="45.94579" lon="4.43534">
        <ele>462.8</ele>
        <time>2021-12-16T22:13:03Z</time>
      </trkpt>
      <trkpt lat="45.94597" lon="4.43556">
        <ele>462.5</ele>
        <time>2021-12-16T22:13:16Z</time>
      </trkpt>
      <trkpt lat="45.94617" lon="4.43576">
        <ele>463.6</ele>
        <time>2021-12-16T22:13:36Z</time>
      </trkpt>
      <trkpt lat="45.94643" lon="4.43623">
        <ele>464</ele>
        <time>2021-12-16T22:13:48Z</time>
      </trkpt>
      <trkpt lat="45.94662" lon="4.43638">
        <ele>465.7</ele>
        <time>2021-12-16T22:14:06Z</time>
      </trkpt>
      <trkpt lat="45.94683" lon="4.43664">
        <ele>467.7</ele>
        <time>2021-12-16T22:14:20Z</time>
      </trkpt>
      <trkpt lat="45.94687" lon="4.43675">
        <ele>468.1</ele>
        <time>2021-12-16T22:14:34Z</time>
      </trkpt>
      <trkpt lat="45.94684" lon="4.4368">
        <ele>468.3</ele>
        <time>2021-12-16T22:14:36Z</time>
      </trkpt>
      <trkpt lat="45.94652" lon="4.4368">
        <ele>470.9</ele>
        <time>2021-12-16T22:14:39Z</time>
      </trkpt>
      <trkpt lat="45.94627" lon="4.43684">
        <ele>475.5</ele>
        <time>2021-12-16T22:14:54Z</time>
      </trkpt>
      <trkpt lat="45.94593" lon="4.43684">
        <ele>481.6</ele>
        <time>2021-12-16T22:15:12Z</time>
      </trkpt>
      <trkpt lat="45.9452" lon="4.43668">
        <ele>488</ele>
        <time>2021-12-16T22:15:18Z</time>
      </trkpt>
      <trkpt lat="45.9452" lon="4.43668">
        <ele>488.1</ele>
        <time>2021-12-16T22:15:25Z</time>
      </trkpt>
      <trkpt lat="45.94521" lon="4.43658">
        <ele>486.2</ele>
        <time>2021-12-16T22:15:27Z</time>
      </trkpt>
      <trkpt lat="45.94509" lon="4.43607">
        <ele>477.3</ele>
        <time>2021-12-16T22:15:31Z</time>
      </trkpt>
      <trkpt lat="45.94489" lon="4.43572">
        <ele>471.7</ele>
        <time>2021-12-16T22:15:48Z</time>
      </trkpt>
      <trkpt lat="45.94446" lon="4.43512">
        <ele>460.8</ele>
        <time>2021-12-16T22:16:08Z</time>
      </trkpt>
      <trkpt lat="45.94415" lon="4.4346">
        <ele>451.5</ele>
        <time>2021-12-16T22:16:25Z</time>
      </trkpt>
      <trkpt lat="45.94397" lon="4.43442">
        <ele>448.4</ele>
        <time>2021-12-16T22:16:32Z</time>
      </trkpt>
      <trkpt lat="45.94361" lon="4.43411">
        <ele>442.5</ele>
        <time>2021-12-16T22:16:46Z</time>
      </trkpt>
      <trkpt lat="45.94342" lon="4.43425">
        <ele>442.6</ele>
        <time>2021-12-16T22:16:52Z</time>
      </trkpt>
      <trkpt lat="45.94347" lon="4.43422">
        <ele>442.6</ele>
        <time>2021-12-16T22:17:06Z</time>
      </trkpt>
      <trkpt lat="45.94343" lon="4.43408">
        <ele>439.8</ele>
        <time>2021-12-16T22:17:26Z</time>
      </trkpt>
      <trkpt lat="45.94364" lon="4.43326">
        <ele>437.7</ele>
        <time>2021-12-16T22:17:30Z</time>
      </trkpt>
      <trkpt lat="45.94373" lon="4.433">
        <ele>437</ele>
        <time>2021-12-16T22:17:45Z</time>
      </trkpt>
      <trkpt lat="45.94386" lon="4.43288">
        <ele>438</ele>
        <time>2021-12-16T22:17:55Z</time>
      </trkpt>
      <trkpt lat="45.94435" lon="4.43223">
        <ele>443.1</ele>
        <time>2021-12-16T22:18:11Z</time>
      </trkpt>
      <trkpt lat="45.9444" lon="4.43217">
        <ele>443.9</ele>
        <time>2021-12-16T22:18:21Z</time>
      </trkpt>
      <trkpt lat="45.94438" lon="4.43212">
        <ele>443.2</ele>
        <time>2021-12-16T22:18:41Z</time>
      </trkpt>
      <trkpt lat="45.94439" lon="4.43195">
        <ele>442.9</ele>
        <time>2021-12-16T22:18:59Z</time>
      </trkpt>
      <trkpt lat="45.94447" lon="4.43165">
        <ele>442.3</ele>
        <time>2021-12-16T22:19:19Z</time>
      </trkpt>
      <trkpt lat="45.94455" lon="4.43144">
        <ele>441.7</ele>
        <time>2021-12-16T22:19:38Z</time>
      </trkpt>
      <trkpt lat="45.94464" lon="4.43131">
        <ele>442.2</ele>
        <time>2021-12-16T22:19:51Z</time>
      </trkpt>
      <trkpt lat="45.94475" lon="4.43114">
        <ele>442.2</ele>
        <time>2021-12-16T22:20:03Z</time>
      </trkpt>
      <trkpt lat="45.9451" lon="4.43052">
        <ele>442.9</ele>
        <time>2021-12-16T22:20:21Z</time>
      </trkpt>
      <trkpt lat="45.94538" lon="4.43009">
        <ele>443.2</ele>
        <time>2021-12-16T22:20:28Z</time>
      </trkpt>
      <trkpt lat="45.94579" lon="4.42932">
        <ele>444.5</ele>
        <time>2021-12-16T22:20:31Z</time>
      </trkpt>
      <trkpt lat="45.94588" lon="4.4292">
        <ele>444.4</ele>
        <time>2021-12-16T22:20:35Z</time>
      </trkpt>
      <trkpt lat="45.9464" lon="4.42856">
        <ele>444.9</ele>
        <time>2021-12-16T22:20:43Z</time>
      </trkpt>
      <trkpt lat="45.94644" lon="4.42844">
        <ele>444.8</ele>
        <time>2021-12-16T22:20:46Z</time>
      </trkpt>
      <trkpt lat="45.94652" lon="4.42838">
        <ele>445.1</ele>
        <time>2021-12-16T22:21:04Z</time>
      </trkpt>
      <trkpt lat="45.94665" lon="4.42841">
        <ele>446.2</ele>
        <time>2021-12-16T22:21:09Z</time>
      </trkpt>
      <trkpt lat="45.94668" lon="4.42842">
        <ele>446.5</ele>
        <time>2021-12-16T22:21:14Z</time>
      </trkpt>
      <trkpt lat="45.94674" lon="4.42851">
        <ele>447.6</ele>
        <time>2021-12-16T22:21:24Z</time>
      </trkpt>
      <trkpt lat="45.94717" lon="4.42799">
        <ele>448.6</ele>
        <time>2021-12-16T22:21:36Z</time>
      </trkpt>
      <trkpt lat="45.94759" lon="4.42763">
        <ele>450.2</ele>
        <time>2021-12-16T22:21:43Z</time>
      </trkpt>
      <trkpt lat="45.94785" lon="4.42737">
        <ele>451.5</ele>
        <time>2021-12-16T22:21:53Z</time>
      </trkpt>
      <trkpt lat="45.94822" lon="4.42688">
        <ele>453.1</ele>
        <time>2021-12-16T22:22:09Z</time>
      </trkpt>
      <trkpt lat="45.94853" lon="4.42658">
        <ele>455.6</ele>
        <time>2021-12-16T22:22:14Z</time>
      </trkpt>
      <trkpt lat="45.94858" lon="4.42655">
        <ele>455.9</ele>
        <time>2021-12-16T22:22:33Z</time>
      </trkpt>
      <trkpt lat="45.94862" lon="4.42653">
        <ele>456.3</ele>
        <time>2021-12-16T22:22:39Z</time>
      </trkpt>
      <trkpt lat="45.94888" lon="4.42584">
        <ele>453.9</ele>
        <time>2021-12-16T22:22:45Z</time>
      </trkpt>
      <trkpt lat="45.94889" lon="4.42575">
        <ele>453.3</ele>
        <time>2021-12-16T22:23:02Z</time>
      </trkpt>
      <trkpt lat="45.94877" lon="4.42549">
        <ele>451.9</ele>
        <time>2021-12-16T22:23:13Z</time>
      </trkpt>
      <trkpt lat="45.94864" lon="4.42536">
        <ele>453</ele>
        <time>2021-12-16T22:23:33Z</time>
      </trkpt>
      <trkpt lat="45.94859" lon="4.42535">
        <ele>453.7</ele>
        <time>2021-12-16T22:23:52Z</time>
      </trkpt>
      <trkpt lat="45.94854" lon="4.42534">
        <ele>454.8</ele>
        <time>2021-12-16T22:23:56Z</time>
      </trkpt>
      <trkpt lat="45.94862" lon="4.42482">
        <ele>457.8</ele>
        <time>2021-12-16T22:24:04Z</time>
      </trkpt>
      <trkpt lat="45.94872" lon="4.42459">
        <ele>459</ele>
        <time>2021-12-16T22:24:12Z</time>
      </trkpt>
      <trkpt lat="45.94887" lon="4.42431">
        <ele>458.4</ele>
        <time>2021-12-16T22:24:30Z</time>
      </trkpt>
      <trkpt lat="45.94902" lon="4.424">
        <ele>459.2</ele>
        <time>2021-12-16T22:24:47Z</time>
      </trkpt>
      <trkpt lat="45.94907" lon="4.42383">
        <ele>459.4</ele>
        <time>2021-12-16T22:24:49Z</time>
      </trkpt>
      <trkpt lat="45.94909" lon="4.42364">
        <ele>460</ele>
        <time>2021-12-16T22:25:00Z</time>
      </trkpt>
      <trkpt lat="45.94909" lon="4.42351">
        <ele>460.8</ele>
        <time>2021-12-16T22:25:07Z</time>
      </trkpt>
      <trkpt lat="45.94902" lon="4.42272">
        <ele>463.9</ele>
        <time>2021-12-16T22:25:26Z</time>
      </trkpt>
      <trkpt lat="45.94898" lon="4.42247">
        <ele>465.6</ele>
        <time>2021-12-16T22:25:40Z</time>
      </trkpt>
      <trkpt lat="45.94889" lon="4.42219">
        <ele>468</ele>
        <time>2021-12-16T22:25:44Z</time>
      </trkpt>
      <trkpt lat="45.94883" lon="4.4219">
        <ele>470.8</ele>
        <time>2021-12-16T22:25:55Z</time>
      </trkpt>
      <trkpt lat="45.94878" lon="4.42157">
        <ele>471.1</ele>
        <time>2021-12-16T22:25:59Z</time>
      </trkpt>
      <trkpt lat="45.94872" lon="4.42135">
        <ele>471.5</ele>
        <time>2021-12-16T22:26:09Z</time>
      </trkpt>
      <trkpt lat="45.94848" lon="4.42102">
        <ele>474.2</ele>
        <time>2021-12-16T22:26:13Z</time>
      </trkpt>
      <trkpt lat="45.94841" lon="4.42087">
        <ele>475.1</ele>
        <time>2021-12-16T22:26:26Z</time>
      </trkpt>
      <trkpt lat="45.94831" lon="4.4205">
        <ele>479.5</ele>
        <time>2021-12-16T22:26:34Z</time>
      </trkpt>
      <trkpt lat="45.94829" lon="4.4204">
        <ele>481.4</ele>
        <time>2021-12-16T22:26:39Z</time>
      </trkpt>
      <trkpt lat="45.94833" lon="4.42041">
        <ele>481.8</ele>
        <time>2021-12-16T22:26:42Z</time>
      </trkpt>
      <trkpt lat="45.94838" lon="4.42044">
        <ele>482</ele>
        <time>2021-12-16T22:26:45Z</time>
      </trkpt>
      <trkpt lat="45.9486" lon="4.42062">
        <ele>480.9</ele>
        <time>2021-12-16T22:26:51Z</time>
      </trkpt>
      <trkpt lat="45.9487" lon="4.42066">
        <ele>481.1</ele>
        <time>2021-12-16T22:26:55Z</time>
      </trkpt>
      <trkpt lat="45.94884" lon="4.42064">
        <ele>483.2</ele>
        <time>2021-12-16T22:27:04Z</time>
      </trkpt>
      <trkpt lat="45.94898" lon="4.42053">
        <ele>485</ele>
        <time>2021-12-16T22:27:23Z</time>
      </trkpt>
      <trkpt lat="45.94925" lon="4.42013">
        <ele>487.6</ele>
        <time>2021-12-16T22:27:31Z</time>
      </trkpt>
      <trkpt lat="45.94936" lon="4.42002">
        <ele>488.6</ele>
        <time>2021-12-16T22:27:46Z</time>
      </trkpt>
      <trkpt lat="45.94947" lon="4.41996">
        <ele>489.1</ele>
        <time>2021-12-16T22:27:57Z</time>
      </trkpt>
      <trkpt lat="45.94968" lon="4.41992">
        <ele>488.7</ele>
        <time>2021-12-16T22:28:03Z</time>
      </trkpt>
      <trkpt lat="45.94975" lon="4.41987">
        <ele>488.9</ele>
        <time>2021-12-16T22:28:13Z</time>
      </trkpt>
      <trkpt lat="45.95" lon="4.41976">
        <ele>485.5</ele>
        <time>2021-12-16T22:28:31Z</time>
      </trkpt>
      <trkpt lat="45.95014" lon="4.41964">
        <ele>483.6</ele>
        <time>2021-12-16T22:28:49Z</time>
      </trkpt>
      <trkpt lat="45.9503" lon="4.41944">
        <ele>481.1</ele>
        <time>2021-12-16T22:29:01Z</time>
      </trkpt>
      <trkpt lat="45.95047" lon="4.41917">
        <ele>477.6</ele>
        <time>2021-12-16T22:29:11Z</time>
      </trkpt>
      <trkpt lat="45.95056" lon="4.41911">
        <ele>475.6</ele>
        <time>2021-12-16T22:29:22Z</time>
      </trkpt>
      <trkpt lat="45.95068" lon="4.41909">
        <ele>475.5</ele>
        <time>2021-12-16T22:29:24Z</time>
      </trkpt>
      <trkpt lat="45.95075" lon="4.41914">
        <ele>475.1</ele>
        <time>2021-12-16T22:29:33Z</time>
      </trkpt>
      <trkpt lat="45.95078" lon="4.4192">
        <ele>474.9</ele>
        <time>2021-12-16T22:29:51Z</time>
      </trkpt>
      <trkpt lat="45.95105" lon="4.41987">
        <ele>477.6</ele>
        <time>2021-12-16T22:30:05Z</time>
      </trkpt>
      <trkpt lat="45.95109" lon="4.41997">
        <ele>478.5</ele>
        <time>2021-12-16T22:30:17Z</time>
      </trkpt>
      <trkpt lat="45.95131" lon="4.41882">
        <ele>486.5</ele>
        <time>2021-12-16T22:30:37Z</time>
      </trkpt>
      <trkpt lat="45.95137" lon="4.41757">
        <ele>494.4</ele>
        <time>2021-12-16T22:30:56Z</time>
      </trkpt>
      <trkpt lat="45.95141" lon="4.41729">
        <ele>496.5</ele>
        <time>2021-12-16T22:31:00Z</time>
      </trkpt>
      <trkpt lat="45.95141" lon="4.41671">
        <ele>499.9</ele>
        <time>2021-12-16T22:31:09Z</time>
      </trkpt>
      <trkpt lat="45.95148" lon="4.41623">
        <ele>503.1</ele>
        <time>2021-12-16T22:31:15Z</time>
      </trkpt>
      <trkpt lat="45.95156" lon="4.41502">
        <ele>509.7</ele>
        <time>2021-12-16T22:31:28Z</time>
      </trkpt>
      <trkpt lat="45.95152" lon="4.4132">
        <ele>517.4</ele>
        <time>2021-12-16T22:31:39Z</time>
      </trkpt>
      <trkpt lat="45.95158" lon="4.41227">
        <ele>521.7</ele>
        <time>2021-12-16T22:31:47Z</time>
      </trkpt>
      <trkpt lat="45.95157" lon="4.41192">
        <ele>523.9</ele>
        <time>2021-12-16T22:31:52Z</time>
      </trkpt>
      <trkpt lat="45.9516" lon="4.4119">
        <ele>525.8</ele>
        <time>2021-12-16T22:32:06Z</time>
      </trkpt>
      <trkpt lat="45.95163" lon="4.41188">
        <ele>527.3</ele>
        <time>2021-12-16T22:32:18Z</time>
      </trkpt>
      <trkpt lat="45.95173" lon="4.41189">
        <ele>530</ele>
        <time>2021-12-16T22:32:23Z</time>
      </trkpt>
      <trkpt lat="45.95179" lon="4.41192">
        <ele>530.8</ele>
        <time>2021-12-16T22:32:39Z</time>
      </trkpt>
      <trkpt lat="45.95184" lon="4.41199">
        <ele>531.4</ele>
        <time>2021-12-16T22:32:49Z</time>
      </trkpt>
      <trkpt lat="45.95188" lon="4.4121">
        <ele>532.9</ele>
        <time>2021-12-16T22:32:58Z</time>
      </trkpt>
      <trkpt lat="45.95189" lon="4.41233">
        <ele>534.7</ele>
        <time>2021-12-16T22:33:14Z</time>
      </trkpt>
      <trkpt lat="45.95198" lon="4.41299">
        <ele>539.5</ele>
        <time>2021-12-16T22:33:26Z</time>
      </trkpt>
      <trkpt lat="45.95221" lon="4.41371">
        <ele>545.6</ele>
        <time>2021-12-16T22:33:42Z</time>
      </trkpt>
      <trkpt lat="45.95238" lon="4.41443">
        <ele>546.7</ele>
        <time>2021-12-16T22:34:02Z</time>
      </trkpt>
      <trkpt lat="45.95245" lon="4.41459">
        <ele>548.3</ele>
        <time>2021-12-16T22:34:20Z</time>
      </trkpt>
      <trkpt lat="45.95255" lon="4.41465">
        <ele>551.4</ele>
        <time>2021-12-16T22:34:35Z</time>
      </trkpt>
      <trkpt lat="45.95278" lon="4.4152">
        <ele>556.6</ele>
        <time>2021-12-16T22:34:49Z</time>
      </trkpt>
      <trkpt lat="45.95285" lon="4.41543">
        <ele>559.2</ele>
        <time>2021-12-16T22:34:52Z</time>
      </trkpt>
      <trkpt lat="45.95286" lon="4.41558">
        <ele>559.9</ele>
        <time>2021-12-16T22:35:12Z</time>
      </trkpt>
      <trkpt lat="45.95287" lon="4.41638">
        <ele>557.8</ele>
        <time>2021-12-16T22:35:25Z</time>
      </trkpt>
      <trkpt lat="45.9529" lon="4.41652">
        <ele>558.4</ele>
        <time>2021-12-16T22:35:35Z</time>
      </trkpt>
      <trkpt lat="45.95295" lon="4.41669">
        <ele>560.3</ele>
        <time>2021-12-16T22:35:50Z</time>
      </trkpt>
      <trkpt lat="45.95319" lon="4.41707">
        <ele>564.9</ele>
        <time>2021-12-16T22:35:59Z</time>
      </trkpt>
      <trkpt lat="45.95359" lon="4.41738">
        <ele>568.3</ele>
        <time>2021-12-16T22:36:15Z</time>
      </trkpt>
      <trkpt lat="45.9536" lon="4.41542">
        <ele>593.5</ele>
        <time>2021-12-16T22:36:19Z</time>
      </trkpt>
      <trkpt lat="45.95366" lon="4.41478">
        <ele>598.9</ele>
        <time>2021-12-16T22:36:32Z</time>
      </trkpt>
      <trkpt lat="45.95541" lon="4.41032">
        <ele>655.7</ele>
        <time>2021-12-16T22:36:47Z</time>
      </trkpt>
      <trkpt lat="45.95623" lon="4.40899">
        <ele>656.2</ele>
        <time>2021-12-16T22:37:07Z</time>
      </trkpt>
      <trkpt lat="45.95706" lon="4.40849">
        <ele>663.5</ele>
        <time>2021-12-16T22:37:26Z</time>
      </trkpt>
      <trkpt lat="45.95775" lon="4.4086">
        <ele>667</ele>
        <time>2021-12-16T22:37:36Z</time>
      </trkpt>
      <trkpt lat="45.95863" lon="4.40931">
        <ele>662.7</ele>
        <time>2021-12-16T22:37:46Z</time>
      </trkpt>
      <trkpt lat="45.95903" lon="4.40963">
        <ele>660.7</ele>
        <time>2021-12-16T22:38:02Z</time>
      </trkpt>
      <trkpt lat="45.95931" lon="4.40935">
        <ele>667.7</ele>
        <time>2021-12-16T22:38:06Z</time>
      </trkpt>
      <trkpt lat="45.95933" lon="4.40866">
        <ele>678.3</ele>
        <time>2021-12-16T22:38:12Z</time>
      </trkpt>
      <trkpt lat="45.95888" lon="4.40787">
        <ele>687.4</ele>
        <time>2021-12-16T22:38:28Z</time>
      </trkpt>
      <trkpt lat="45.95778" lon="4.4062">
        <ele>704</ele>
        <time>2021-12-16T22:38:42Z</time>
      </trkpt>
      <trkpt lat="45.95748" lon="4.40551">
        <ele>706.7</ele>
        <time>2021-12-16T22:38:56Z</time>
      </trkpt>
      <trkpt lat="45.95742" lon="4.40467">
        <ele>711.7</ele>
        <time>2021-12-16T22:39:06Z</time>
      </trkpt>
      <trkpt lat="45.9576" lon="4.40399">
        <ele>713.9</ele>
        <time>2021-12-16T22:39:08Z</time>
      </trkpt>
      <trkpt lat="45.95788" lon="4.4036">
        <ele>717.6</ele>
        <time>2021-12-16T22:39:21Z</time>
      </trkpt>
      <trkpt lat="45.95921" lon="4.40285">
        <ele>737.1</ele>
        <time>2021-12-16T22:39:38Z</time>
      </trkpt>
      <trkpt lat="45.95987" lon="4.40225">
        <ele>743.5</ele>
        <time>2021-12-16T22:39:47Z</time>
      </trkpt>
      <trkpt lat="45.96016" lon="4.40154">
        <ele>744.7</ele>
        <time>2021-12-16T22:39:49Z</time>
      </trkpt>
      <trkpt lat="45.9603" lon="4.40036">
        <ele>750.7</ele>
        <time>2021-12-16T22:40:08Z</time>
      </trkpt>
      <trkpt lat="45.95985" lon="4.39828">
        <ele>766.4</ele>
        <time>2021-12-16T22:40:19Z</time>
      </trkpt>
      <trkpt lat="45.95995" lon="4.3974">
        <ele>763.3</ele>
        <time>2021-12-16T22:40:28Z</time>
      </trkpt>
      <trkpt lat="45.95794" lon="4.39437">
        <ele>754.2</ele>
        <time>2021-12-16T22:40:36Z</time>
      </trkpt>
      <trkpt lat="45.95762" lon="4.3942">
        <ele>758.4</ele>
        <time>2021-12-16T22:40:43Z</time>
      </trkpt>
      <trkpt lat="45.9574" lon="4.39379">
        <ele>760.4</ele>
        <time>2021-12-16T22:41:00Z</time>
      </trkpt>
      <trkpt lat="45.95671" lon="4.393">
        <ele>784.3</ele>
        <time>2021-12-16T22:41:12Z</time>
      </trkpt>
      <trkpt lat="45.95467" lon="4.3916">
        <ele>799.1</ele>
        <time>2021-12-16T22:41:31Z</time>
      </trkpt>
      <trkpt lat="45.95398" lon="4.39061">
        <ele>798.9</ele>
        <time>2021-12-16T22:41:35Z</time>
      </trkpt>
      <trkpt lat="45.95294" lon="4.38993">
        <ele>794.8</ele>
        <time>2021-12-16T22:41:39Z</time>
      </trkpt>
      <trkpt lat="45.95295" lon="4.38993">
        <ele>794.9</ele>
        <time>2021-12-16T22:41:48Z</time>
      </trkpt>
      <trkpt lat="45.95322" lon="4.38986">
        <ele>795.8</ele>
        <time>2021-12-16T22:41:58Z</time>
      </trkpt>
      <trkpt lat="45.95339" lon="4.38977">
        <ele>796.2</ele>
        <time>2021-12-16T22:42:06Z</time>
      </trkpt>
      <trkpt lat="45.95387" lon="4.38946">
        <ele>796.1</ele>
        <time>2021-12-16T22:42:24Z</time>
      </trkpt>
      <trkpt lat="45.95417" lon="4.38932">
        <ele>794.1</ele>
        <time>2021-12-16T22:42:26Z</time>
      </trkpt>
      <trkpt lat="45.95427" lon="4.38929">
        <ele>793.2</ele>
        <time>2021-12-16T22:42:32Z</time>
      </trkpt>
      <trkpt lat="45.95448" lon="4.38929">
        <ele>791.4</ele>
        <time>2021-12-16T22:42:48Z</time>
      </trkpt>
      <trkpt lat="45.95479" lon="4.38935">
        <ele>788.2</ele>
        <time>2021-12-16T22:42:59Z</time>
      </trkpt>
      <trkpt lat="45.95515" lon="4.38939">
        <ele>785.3</ele>
        <time>2021-12-16T22:43:09Z</time>
      </trkpt>
      <trkpt lat="45.95539" lon="4.38937">
        <ele>783.4</ele>
        <time>2021-12-16T22:43:23Z</time>
      </trkpt>
      <trkpt lat="45.95562" lon="4.38926">
        <ele>780.8</ele>
        <time>2021-12-16T22:43:38Z</time>
      </trkpt>
      <trkpt lat="45.95618" lon="4.38887">
        <ele>773.4</ele>
        <time>2021-12-16T22:43:40Z</time>
      </trkpt>
      <trkpt lat="45.95646" lon="4.38863">
        <ele>769.6</ele>
        <time>2021-12-16T22:43:55Z</time>
      </trkpt>
      <trkpt lat="45.9568" lon="4.38828">
        <ele>767.3</ele>
        <time>2021-12-16T22:44:01Z</time>
      </trkpt>
      <trkpt lat="45.95743" lon="4.38795">
        <ele>766.9</ele>
        <time>2021-12-16T22:44:16Z</time>
      </trkpt>
      <trkpt lat="45.9576" lon="4.3878">
        <ele>766.6</ele>
        <time>2021-12-16T22:44:30Z</time>
      </trkpt>
      <trkpt lat="45.9577" lon="4.38766">
        <ele>766.6</ele>
        <time>2021-12-16T22:44:50Z</time>
      </trkpt>
      <trkpt lat="45.9577" lon="4.38774">
        <ele>766.4</ele>
        <time>2021-12-16T22:45:03Z</time>
      </trkpt>
      <trkpt lat="45.9577" lon="4.38766">
        <ele>766.6</ele>
        <time>2021-12-16T22:45:22Z</time>
      </trkpt>
      <trkpt lat="45.95781" lon="4.38755">
        <ele>766.7</ele>
        <time>2021-12-16T22:45:40Z</time>
      </trkpt>
      <trkpt lat="45.95801" lon="4.38733">
        <ele>766.7</ele>
        <time>2021-12-16T22:45:47Z</time>
      </trkpt>
      <trkpt lat="45.95832" lon="4.38703">
        <ele>767.4</ele>
        <time>2021-12-16T22:45:53Z</time>
      </trkpt>
      <trkpt lat="45.95915" lon="4.38642">
        <ele>767.5</ele>
        <time>2021-12-16T22:45:55Z</time>
      </trkpt>
      <trkpt lat="45.95968" lon="4.38629">
        <ele>769.1</ele>
        <time>2021-12-16T22:46:01Z</time>
      </trkpt>
      <trkpt lat="45.96034" lon="4.38622">
        <ele>770.8</ele>
        <time>2021-12-16T22:46:21Z</time>
      </trkpt>
      <trkpt lat="45.96044" lon="4.38624">
        <ele>770.8</ele>
        <time>2021-12-16T22:46:39Z</time>
      </trkpt>
      <trkpt lat="45.96092" lon="4.38644">
        <ele>770.8</ele>
        <time>2021-12-16T22:46:42Z</time>
      </trkpt>
      <trkpt lat="45.96141" lon="4.38673">
        <ele>770.4</ele>
        <time>2021-12-16T22:46:51Z</time>
      </trkpt>
      <trkpt lat="45.96162" lon="4.38681">
        <ele>770.8</ele>
        <time>2021-12-16T22:47:07Z</time>
      </trkpt>
      <trkpt lat="45.96201" lon="4.3869">
        <ele>771.4</ele>
        <time>2021-12-16T22:47:27Z</time>
      </trkpt>
      <trkpt lat="45.96214" lon="4.38695">
        <ele>771.7</ele>
        <time>2021-12-16T22:47:38Z</time>
      </trkpt>
      <trkpt lat="45.96273" lon="4.38734">
        <ele>773.3</ele>
        <time>2021-12-16T22:47:56Z</time>
      </trkpt>
      <trkpt lat="45.96302" lon="4.38746">
        <ele>774.9</ele>
        <time>2021-12-16T22:48:08Z</time>
      </trkpt>
      <trkpt lat="45.96327" lon="4.38749">
        <ele>775.8</ele>
        <time>2021-12-16T22:48:21Z</time>
      </trkpt>
      <trkpt lat="45.9634" lon="4.38748">
        <ele>776</ele>
        <time>2021-12-16T22:48:28Z</time>
      </trkpt>
      <trkpt lat="45.964" lon="4.38736">
        <ele>774.6</ele>
        <time>2021-12-16T22:48:43Z</time>
      </trkpt>
      <trkpt lat="45.96433" lon="4.38737">
        <ele>773.4</ele>
        <time>2021-12-16T22:48:47Z</time>
      </trkpt>
      <trkpt lat="45.96454" lon="4.38742">
        <ele>772.6</ele>
        <time>2021-12-16T22:48:53Z</time>
      </trkpt>
      <trkpt lat="45.96465" lon="4.38747">
        <ele>772.2</ele>
        <time>2021-12-16T22:48:56Z</time>
      </trkpt>
      <trkpt lat="45.96505" lon="4.38772">
        <ele>767.7</ele>
        <time>2021-12-16T22:49:12Z</time>
      </trkpt>
      <trkpt lat="45.96523" lon="4.38786">
        <ele>766.3</ele>
        <time>2021-12-16T22:49:17Z</time>
      </trkpt>
      <trkpt lat="45.96531" lon="4.38797">
        <ele>765.7</ele>
        <time>2021-12-16T22:49:19Z</time>
      </trkpt>
      <trkpt lat="45.96539" lon="4.38813">
        <ele>765</ele>
        <time>2021-12-16T22:49:31Z</time>
      </trkpt>
      <trkpt lat="45.96576" lon="4.38885">
        <ele>761.2</ele>
        <time>2021-12-16T22:49:36Z</time>
      </trkpt>
      <trkpt lat="45.96602" lon="4.38929">
        <ele>759.5</ele>
        <time>2021-12-16T22:49:49Z</time>
      </trkpt>
      <trkpt lat="45.96617" lon="4.38965">
        <ele>758.9</ele>
        <time>2021-12-16T22:50:09Z</time>
      </trkpt>
      <trkpt lat="45.96628" lon="4.39005">
        <ele>759.1</ele>
        <time>2021-12-16T22:50:12Z</time>
      </trkpt>
      <trkpt lat="45.96641" lon="4.39038">
        <ele>760.1</ele>
        <time>2021-12-16T22:50:19Z</time>
      </trkpt>
      <trkpt lat="45.96658" lon="4.39073">
        <ele>762.4</ele>
        <time>2021-12-16T22:50:25Z</time>
      </trkpt>
      <trkpt lat="45.96662" lon="4.39085">
        <ele>763.5</ele>
        <time>2021-12-16T22:50:28Z</time>
      </trkpt>
      <trkpt lat="45.96674" lon="4.39139">
        <ele>765.3</ele>
        <time>2021-12-16T22:50:33Z</time>
      </trkpt>
      <trkpt lat="45.96694" lon="4.39213">
        <ele>766</ele>
        <time>2021-12-16T22:50:37Z</time>
      </trkpt>
      <trkpt lat="45.96722" lon="4.39282">
        <ele>766.1</ele>
        <time>2021-12-16T22:50:56Z</time>
      </trkpt>
      <trkpt lat="45.96759" lon="4.39363">
        <ele>767.5</ele>
        <time>2021-12-16T22:51:14Z</time>
      </trkpt>
      <trkpt lat="45.96771" lon="4.39385">
        <ele>766.6</ele>
        <time>2021-12-16T22:51:30Z</time>
      </trkpt>
      <trkpt lat="45.96788" lon="4.39404">
        <ele>765.1</ele>
        <time>2021-12-16T22:51:37Z</time>
      </trkpt>
      <trkpt lat="45.96823" lon="4.39438">
        <ele>763.5</ele>
        <time>2021-12-16T22:51:43Z</time>
      </trkpt>
      <trkpt lat="45.96836" lon="4.39454">
        <ele>763.3</ele>
        <time>2021-12-16T22:51:53Z</time>
      </trkpt>
      <trkpt lat="45.96856" lon="4.39474">
        <ele>762.7</ele>
        <time>2021-12-16T22:52:09Z</time>
      </trkpt>
      <trkpt lat="45.96867" lon="4.39482">
        <ele>762</ele>
        <time>2021-12-16T22:52:14Z</time>
      </trkpt>
      <trkpt lat="45.96905" lon="4.39494">
        <ele>759.8</ele>
        <time>2021-12-16T22:52:17Z</time>
      </trkpt>
      <trkpt lat="45.96951" lon="4.3951">
        <ele>759.2</ele>
        <time>2021-12-16T22:52:24Z</time>
      </trkpt>
      <trkpt lat="45.96962" lon="4.39517">
        <ele>758.5</ele>
        <time>2021-12-16T22:52:43Z</time>
      </trkpt>
      <trkpt lat="45.96977" lon="4.3953">
        <ele>757.1</ele>
        <time>2021-12-16T22:53:01Z</time>
      </trkpt>
      <trkpt lat="45.96995" lon="4.3955">
        <ele>753.9</ele>
        <time>2021-12-16T22:53:14Z</time>
      </trkpt>
      <trkpt lat="45.97007" lon="4.39559">
        <ele>751.9</ele>
        <time>2021-12-16T22:53:29Z</time>
      </trkpt>
      <trkpt lat="45.97039" lon="4.39579">
        <ele>746.8</ele>
        <time>2021-12-16T22:53:34Z</time>
      </trkpt>
      <trkpt lat="45.97105" lon="4.39625">
        <ele>738.6</ele>
        <time>2021-12-16T22:53:37Z</time>
      </trkpt>
      <trkpt lat="45.97115" lon="4.39628">
        <ele>737.5</ele>
        <time>2021-12-16T22:53:43Z</time>
      </trkpt>
      <trkpt lat="45.97177" lon="4.39628">
        <ele>732.6</ele>
        <time>2021-12-16T22:53:52Z</time>
      </trkpt>
      <trkpt lat="45.97211" lon="4.3961">
        <ele>731.4</ele>
        <time>2021-12-16T22:54:03Z</time>
      </trkpt>
      <trkpt lat="45.9722" lon="4.39606">
        <ele>730.9</ele>
        <time>2021-12-16T22:54:16Z</time>
      </trkpt>
      <trkpt lat="45.97231" lon="4.39605">
        <ele>730.2</ele>
        <time>2021-12-16T22:54:21Z</time>
      </trkpt>
      <trkpt lat="45.97266" lon="4.39612">
        <ele>727.9</ele>
        <time>2021-12-16T22:54:38Z</time>
      </trkpt>
      <trkpt lat="45.97278" lon="4.3962">
        <ele>727</ele>
        <time>2021-12-16T22:54:55Z</time>
      </trkpt>
      <trkpt lat="45.97276" lon="4.39615">
        <ele>727.2</ele>
        <time>2021-12-16T22:55:05Z</time>
      </trkpt>
      <trkpt lat="45.97276" lon="4.39635">
        <ele>727.1</ele>
        <time>2021-12-16T22:55:10Z</time>
      </trkpt>
      <trkpt lat="45.97278" lon="4.39662">
        <ele>725.3</ele>
        <time>2021-12-16T22:55:21Z</time>
      </trkpt>
      <trkpt lat="45.97266" lon="4.39701">
        <ele>723.3</ele>
        <time>2021-12-16T22:55:32Z</time>
      </trkpt>
      <trkpt lat="45.97246" lon="4.39757">
        <ele>719.9</ele>
        <time>2021-12-16T22:55:44Z</time>
      </trkpt>
      <trkpt lat="45.97204" lon="4.39885">
        <ele>703.7</ele>
        <time>2021-12-16T22:55:51Z</time>
      </trkpt>
      <trkpt lat="45.97204" lon="4.39927">
        <ele>699.8</ele>
        <time>2021-12-16T22:56:10Z</time>
      </trkpt>
      <trkpt lat="45.97238" lon="4.40049">
        <ele>686.8</ele>
        <time>2021-12-16T22:56:23Z</time>
      </trkpt>
      <trkpt lat="45.97219" lon="4.40169">
        <ele>675.1</ele>
        <time>2021-12-16T22:56:40Z</time>
      </trkpt>
      <trkpt lat="45.9717" lon="4.40244">
        <ele>676.9</ele>
        <time>2021-12-16T22:56:51Z</time>
      </trkpt>
      <trkpt lat="45.97069" lon="4.40409">
        <ele>658.9</ele>
        <time>2021-12-16T22:57:08Z</time>
      </trkpt>
      <trkpt lat="45.97024" lon="4.40496">
        <ele>646.3</ele>
        <time>2021-12-16T22:57:11Z</time>
      </trkpt>
      <trkpt lat="45.97008" lon="4.40569">
        <ele>641.4</ele>
        <time>2021-12-16T22:57:27Z</time>
      </trkpt>
      <trkpt lat="45.96999" lon="4.40741">
        <ele>632.9</ele>
        <time>2021-12-16T22:57:30Z</time>
      </trkpt>
      <trkpt lat="45.96965" lon="4.40769">
        <ele>610</ele>
        <time>2021-12-16T22:57:46Z</time>
      </trkpt>
      <trkpt lat="45.96918" lon="4.40785">
        <ele>599.3</ele>
        <time>2021-12-16T22:57:57Z</time>
      </trkpt>
      <trkpt lat="45.96884" lon="4.40842">
        <ele>602.6</ele>
        <time>2021-12-16T22:57:59Z</time>
      </trkpt>
      <trkpt lat="45.96806" lon="4.40872">
        <ele>591.1</ele>
        <time>2021-12-16T22:58:19Z</time>
      </trkpt>
      <trkpt lat="45.96642" lon="4.40896">
        <ele>575.1</ele>
        <time>2021-12-16T22:58:22Z</time>
      </trkpt>
      <trkpt lat="45.96557" lon="4.40894">
        <ele>561.7</ele>
        <time>2021-12-16T22:58:26Z</time>
      </trkpt>
      <trkpt lat="45.96515" lon="4.40901">
        <ele>558.7</ele>
        <time>2021-12-16T22:58:37Z</time>
      </trkpt>
      <trkpt lat="45.96375" lon="4.40962">
        <ele>546.7</ele>
        <time>2021-12-16T22:58:54Z</time>
      </trkpt>
      <trkpt lat="45.96336" lon="4.40976">
        <ele>540</ele>
        <time>2021-12-16T22:59:01Z</time>
      </trkpt>
      <trkpt lat="45.96296" lon="4.40971">
        <ele>535.8</ele>
        <time>2021-12-16T22:59:16Z</time>
      </trkpt>
      <trkpt lat="45.96292" lon="4.40977">
        <ele>535.7</ele>
        <time>2021-12-16T22:59:27Z</time>
      </trkpt>
      <trkpt lat="45.96286" lon="4.40979">
        <ele>535.8</ele>
        <time>2021-12-16T22:59:34Z</time>
      </trkpt>
      <trkpt lat="45.96275" lon="4.40988">
        <ele>535.2</ele>
        <time>2021-12-16T22:59:44Z</time>
      </trkpt>
      <trkpt lat="45.96257" lon="4.41006">
        <ele>535.2</ele>
        <time>2021-12-16T22:59:46Z</time>
      </trkpt>
      <trkpt lat="45.96249" lon="4.41017">
        <ele>534.3</ele>
        <time>2021-12-16T22:59:49Z</time>
      </trkpt>
      <trkpt lat="45.96231" lon="4.41046">
        <ele>534.3</ele>
        <time>2021-12-16T22:59:53Z</time>
      </trkpt>
      <trkpt lat="45.96167" lon="4.41184">
        <ele>532.2</ele>
        <time>2021-12-16T23:00:05Z</time>
      </trkpt>
      <trkpt lat="45.96155" lon="4.41216">
        <ele>531.4</ele>
        <time>2021-12-16T23:00:21Z</time>
      </trkpt>
      <trkpt lat="45.96149" lon="4.41245">
        <ele>527.8</ele>
        <time>2021-12-16T23:00:41Z</time>
      </trkpt>
      <trkpt lat="45.96132" lon="4.41329">
        <ele>518.1</ele>
        <time>2021-12-16T23:00:45Z</time>
      </trkpt>
      <trkpt lat="45.96112" lon="4.41405">
        <ele>512.4</ele>
        <time>2021-12-16T23:00:50Z</time>
      </trkpt>
      <trkpt lat="45.96102" lon="4.41435">
        <ele>510.3</ele>
        <time>2021-12-16T23:01:00Z</time>
      </trkpt>
      <trkpt lat="45.96086" lon="4.4147">
        <ele>509</ele>
        <time>2021-12-16T23:01:17Z</time>
      </trkpt>
      <trkpt lat="45.9608" lon="4.41478">
        <ele>508.6</ele>
        <time>2021-12-16T23:01:35Z</time>
      </trkpt>
      <trkpt lat="45.96057" lon="4.41501">
        <ele>507.2</ele>
        <time>2021-12-16T23:01:37Z</time>
      </trkpt>
      <trkpt lat="45.96053" lon="4.4151">
        <ele>508.3</ele>
        <time>2021-12-16T23:01:51Z</time>
      </trkpt>
      <trkpt lat="45.96007" lon="4.41504">
        <ele>505.9</ele>
        <time>2021-12-16T23:02:08Z</time>
      </trkpt>
      <trkpt lat="45.95956" lon="4.41521">
        <ele>504.8</ele>
        <time>2021-12-16T23:02:21Z</time>
      </trkpt>
      <trkpt lat="45.95891" lon="4.41578">
        <ele>502.5</ele>
        <time>2021-12-16T23:02:24Z</time>
      </trkpt>
      <trkpt lat="45.9581" lon="4.41651">
        <ele>496.8</ele>
        <time>2021-12-16T23:02:40Z</time>
      </trkpt>
      <trkpt lat="45.95781" lon="4.41697">
        <ele>495.8</ele>
        <time>2021-12-16T23:02:57Z</time>
      </trkpt>
      <trkpt lat="45.9577" lon="4.4174">
        <ele>496.6</ele>
        <time>2021-12-16T23:03:09Z</time>
      </trkpt>
      <trkpt lat="45.95732" lon="4.41793">
        <ele>492</ele>
        <time>2021-12-16T23:03:17Z</time>
      </trkpt>
      <trkpt lat="45.95706" lon="4.41888">
        <ele>491.3</ele>
        <time>2021-12-16T23:03:30Z</time>
      </trkpt>
      <trkpt lat="45.9566" lon="4.41957">
        <ele>484.6</ele>
        <time>2021-12-16T23:03:32Z</time>
      </trkpt>
      <trkpt lat="45.95576" lon="4.42079">
        <ele>481.4</ele>
        <time>2021-12-16T23:03:36Z</time>
      </trkpt>
      <trkpt lat="45.95524" lon="4.42138">
        <ele>480.3</ele>
        <time>2021-12-16T23:03:49Z</time>
      </trkpt>
      <trkpt lat="45.95448" lon="4.42161">
        <ele>481.6</ele>
        <time>2021-12-16T23:03:54Z</time>
      </trkpt>
      <trkpt lat="45.95393" lon="4.42153">
        <ele>477</ele>
        <time>2021-12-16T23:04:09Z</time>
      </trkpt>
      <trkpt lat="45.95349" lon="4.42118">
        <ele>470.8</ele>
        <time>2021-12-16T23:04:24Z</time>
      </trkpt>
      <trkpt lat="45.95349" lon="4.42121">
        <ele>470.9</ele>
        <time>2021-12-16T23:04:30Z</time>
      </trkpt>
      <trkpt lat="45.95321" lon="4.42115">
        <ele>470</ele>
        <time>2021-12-16T23:04:44Z</time>
      </trkpt>
      <trkpt lat="45.95298" lon="4.42099">
        <ele>471</ele>
        <time>2021-12-16T23:05:04Z</time>
      </trkpt>
      <trkpt lat="45.95291" lon="4.42096">
        <ele>471.4</ele>
        <time>2021-12-16T23:05:16Z</time>
      </trkpt>
      <trkpt lat="45.9527" lon="4.42096">
        <ele>472.2</ele>
        <time>2021-12-16T23:05:22Z</time>
      </trkpt>
      <trkpt lat="45.95257" lon="4.42092">
        <ele>473.9</ele>
        <time>2021-12-16T23:05:37Z</time>
      </trkpt>
      <trkpt lat="45.95241" lon="4.421">
        <ele>473.8</ele>
        <time>2021-12-16T23:05:55Z</time>
      </trkpt>
      <trkpt lat="45.95231" lon="4.42103">
        <ele>474.4</ele>
        <time>2021-12-16T23:06:15Z</time>
      </trkpt>
      <trkpt lat="45.95202" lon="4.42104">
        <ele>475.2</ele>
        <time>2021-12-16T23:06:17Z</time>
      </trkpt>
      <trkpt lat="45.95197" lon="4.42103">
        <ele>475.5</ele>
        <time>2021-12-16T23:06:20Z</time>
      </trkpt>
      <trkpt lat="45.95144" lon="4.42075">
        <ele>478.1</ele>
        <time>2021-12-16T23:06:40Z</time>
      </trkpt>
      <trkpt lat="45.95114" lon="4.42055">
        <ele>479.1</ele>
        <time>2021-12-16T23:06:57Z</time>
      </trkpt>
      <trkpt lat="45.95104" lon="4.42047">
        <ele>478</ele>
        <time>2021-12-16T23:07:07Z</time>
      </trkpt>
      <trkpt lat="45.95096" lon="4.42036">
        <ele>476.6</ele>
        <time>2021-12-16T23:07:26Z</time>
      </trkpt>
      <trkpt lat="45.95095" lon="4.42039">
        <ele>476.5</ele>
        <time>2021-12-16T23:07:45Z</time>
      </trkpt>
      <trkpt lat="45.95083" lon="4.42065">
        <ele>475.7</ele>
        <time>2021-12-16T23:07:58Z</time>
      </trkpt>
      <trkpt lat="45.95069" lon="4.42113">
        <ele>470.3</ele>
        <time>2021-12-16T23:08:14Z</time>
      </trkpt>
      <trkpt lat="45.95059" lon="4.42166">
        <ele>465</ele>
        <time>2021-12-16T23:08:21Z</time>
      </trkpt>
      <trkpt lat="45.95032" lon="4.42276">
        <ele>459.1</ele>
        <time>2021-12-16T23:08:34Z</time>
      </trkpt>
      <trkpt lat="45.9502" lon="4.42302">
        <ele>458.5</ele>
        <time>2021-12-16T23:08:50Z</time>
      </trkpt>
      <trkpt lat="45.94988" lon="4.42357">
        <ele>456.7</ele>
        <time>2021-12-16T23:08:53Z</time>
      </trkpt>
      <trkpt lat="45.94979" lon="4.4238">
        <ele>456.6</ele>
        <time>2021-12-16T23:09:01Z</time>
      </trkpt>
      <trkpt lat="45.94954" lon="4.42461">
        <ele>457.1</ele>
        <time>2021-12-16T23:09:05Z</time>
      </trkpt>
      <trkpt lat="45.9493" lon="4.42523">
        <ele>455.2</ele>
        <time>2021-12-16T23:09:11Z</time>
      </trkpt>
      <trkpt lat="45.94906" lon="4.42558">
        <ele>454.1</ele>
        <time>2021-12-16T23:09:28Z</time>
      </trkpt>
      <trkpt lat="45.94892" lon="4.42571">
        <ele>453.6</ele>
        <time>2021-12-16T23:09:31Z</time>
      </trkpt>
      <trkpt lat="45.94889" lon="4.42575">
        <ele>453.3</ele>
        <time>2021-12-16T23:09:47Z</time>
      </trkpt>
      <trkpt lat="45.94888" lon="4.42584">
        <ele>453.9</ele>
        <time>2021-12-16T23:09:59Z</time>
      </trkpt>
      <trkpt lat="45.94838" lon="4.4272">
        <ele>459</ele>
        <time>2021-12-16T23:10:06Z</time>
      </trkpt>
      <trkpt lat="45.94794" lon="4.42788">
        <ele>460.9</ele>
        <time>2021-12-16T23:10:26Z</time>
      </trkpt>
      <trkpt lat="45.94788" lon="4.42799">
        <ele>462</ele>
        <time>2021-12-16T23:10:38Z</time>
      </trkpt>
      <trkpt lat="45.94787" lon="4.42808">
        <ele>463.9</ele>
        <time>2021-12-16T23:10:57Z</time>
      </trkpt>
      <trkpt lat="45.94768" lon="4.42829">
        <ele>464</ele>
        <time>2021-12-16T23:11:00Z</time>
      </trkpt>
      <trkpt lat="45.94754" lon="4.42851">
        <ele>465.1</ele>
        <time>2021-12-16T23:11:06Z</time>
      </trkpt>
      <trkpt lat="45.94746" lon="4.42872">
        <ele>465.6</ele>
        <time>2021-12-16T23:11:24Z</time>
      </trkpt>
      <trkpt lat="45.94737" lon="4.42906">
        <ele>463</ele>
        <time>2021-12-16T23:11:43Z</time>
      </trkpt>
      <trkpt lat="45.948" lon="4.43005">
        <ele>470.4</ele>
        <time>2021-12-16T23:12:01Z</time>
      </trkpt>
      <trkpt lat="45.94805" lon="4.4302">
        <ele>469.6</ele>
        <time>2021-12-16T23:12:13Z</time>
      </trkpt>
      <trkpt lat="45.94803" lon="4.43031">
        <ele>469.7</ele>
        <time>2021-12-16T23:12:19Z</time>
      </trkpt>
      <trkpt lat="45.94792" lon="4.43043">
        <ele>473.2</ele>
        <time>2021-12-16T23:12:30Z</time>
      </trkpt>
      <trkpt lat="45.94778" lon="4.43037">
        <ele>473.9</ele>
        <time>2021-12-16T23:12:32Z</time>
      </trkpt>
      <trkpt lat="45.94756" lon="4.43006">
        <ele>471.6</ele>
        <time>2021-12-16T23:12:48Z</time>
      </trkpt>
      <trkpt lat="45.94742" lon="4.42998">
        <ele>471.7</ele>
        <time>2021-12-16T23:13:04Z</time>
      </trkpt>
      <trkpt lat="45.9472" lon="4.42997">
        <ele>474.1</ele>
        <time>2021-12-16T23:13:19Z</time>
      </trkpt>
      <trkpt lat="45.94716" lon="4.43">
        <ele>474.4</ele>
        <time>2021-12-16T23:13:31Z</time>
      </trkpt>
      <trkpt lat="45.94688" lon="4.43029">
        <ele>476.8</ele>
        <time>2021-12-16T23:13:34Z</time>
      </trkpt>
      <trkpt lat="45.94672" lon="4.43042">
        <ele>477.1</ele>
        <time>2021-12-16T23:13:43Z</time>
      </trkpt>
      <trkpt lat="45.94655" lon="4.43063">
        <ele>477.1</ele>
        <time>2021-12-16T23:13:45Z</time>
      </trkpt>
      <trkpt lat="45.94654" lon="4.43068">
        <ele>477.5</ele>
        <time>2021-12-16T23:13:53Z</time>
      </trkpt>
    </trkseg>
  </trk>
</gpx>